This is the latest recevied weather packets stored in our database for station/object KQ4PPF. If no packets are shown the sender has not sent any weather packets the latest 1 day(s).
| Time | Temp. | Humidity | Pressure | Rain* | Wind** | Luminosity | Snow |
|---|---|---|---|---|---|---|---|
| 1777992439 | 21.67° C | 60% | 1015 hPa | 0 mm | 0 m/s | 473 W/m² | - |
| 1777992138 | 21.11° C | 61% | 1014.8 hPa | 0 mm | 0 m/s | 696 W/m² | - |
| 1777991834 | 20° C | 65% | 1015 hPa | 0 mm | 0 m/s | 705 W/m² | - |
| 1777991532 | 19.44° C | 66% | 1014.6 hPa | 0 mm | 0.45 m/s, 7° | 670 W/m² | - |
| 1777991229 | 19.44° C | 65% | 1014.7 hPa | 0 mm | 0.89 m/s, 323° | 522 W/m² | - |
| 1777990926 | 18.89° C | 66% | 1014.7 hPa | 0 mm | 0 m/s | 324 W/m² | - |
| 1777990624 | 18.89° C | 68% | 1014.6 hPa | 0 mm | 0 m/s | 154 W/m² | - |
| 1777990320 | 18.89° C | 66% | 1014.6 hPa | 0 mm | 0 m/s | 140 W/m² | - |
| 1777990016 | 18.89° C | 67% | 1014.5 hPa | 0 mm | 0 m/s | 143 W/m² | - |
| 1777989714 | 18.33° C | 67% | 1014.7 hPa | 0 mm | 0 m/s | 151 W/m² | - |
| 1777989410 | 18.33° C | 68% | 1014.9 hPa | 0 mm | 0 m/s | 143 W/m² | - |
| 1777989106 | 17.78° C | 69% | 1014.9 hPa | 0 mm | 0 m/s | 145 W/m² | - |
| 1777988802 | 17.22° C | 69% | 1014.8 hPa | 0 mm | 0 m/s | 121 W/m² | - |
| 1777988500 | 17.78° C | 68% | 1014.9 hPa | 0 mm | 0 m/s | 125 W/m² | - |
| 1777988197 | 17.22° C | 67% | 1014.6 hPa | 0 mm | 0 m/s | 133 W/m² | - |
| 1777987893 | 17.22° C | 68% | 1014.8 hPa | 0 mm | 0 m/s | 135 W/m² | - |
| 1777987589 | 17.22° C | 70% | 1014.7 hPa | 0 mm | 0 m/s | 124 W/m² | - |
| 1777987287 | 17.22° C | 69% | 1014.6 hPa | 0 mm | 0 m/s | 104 W/m² | - |
| 1777986983 | 17.22° C | 69% | 1015.1 hPa | 0 mm | 0 m/s | 138 W/m² | - |
| 1777986681 | 17.22° C | 71% | 1014.9 hPa | 0 mm | 0 m/s | 81 W/m² | - |
| 1777986379 | 16.67° C | 74% | 1015.1 hPa | 0 mm | 0 m/s | 81 W/m² | - |
| 1777986078 | 16.11° C | 72% | 1014.9 hPa | 0 mm | 0 m/s | 96 W/m² | - |
| 1777985773 | 16.11° C | 74% | 1014.8 hPa | 0 mm | 0 m/s | 82 W/m² | - |
| 1777985471 | 15.56° C | 77% | 1014.7 hPa | 0 mm | 0 m/s | 96 W/m² | - |
| 1777985167 | 15.56° C | 76% | 1014.5 hPa | 0 mm | 0 m/s | 65 W/m² | - |
* Rain latest hour (hover to see other rain measurements)
** Current wind speed in m/s (hover to see current wind gust speed)